Location: Eastlake (historical)
(39.0077°N, 122.6678°W)
Time: 13:04:27
(UTC+00:00)

Cosmos 1386 Rocket - Pass Details

Date: 25 November 2020
Orbit: 929 x 1006 km, 83.0° (Epoch: 25 January)

Event Time Altitude Azimuth Distance (km) Brightness Sun altitude
Rises 12:24:58 0° 183° (S) 3,717 7.6 -30.7°
Reaches altitude 10° 12:27:29 10° 183° (S) 2,772 6.9 -30.2°
Maximum altitude 12:33:53 85° 96° (E) 1,013 4.5 -29.0°
Drops below altitude 10° 12:40:17 10° 8° (N) 2,772 6.9 -27.7°
Sets 12:42:48 0° 8° (N) 3,717 7.6 -27.3°
